AirNav   Everest Fuels
 
 274 users online  

01K Caldwell Municipal Airport
Caldwell, Kansas, USA

GOING TO CALDWELL?


FAA INFORMATION EFFECTIVE 28 MARCH 2019

Location

FAA Identifier: 01K
Lat/Long: 37-02-11.8000N / 097-35-08.0000W
37-02.196667N / 097-35.133333W
37.0366111 / -97.5855556
(estimated)
Elevation: 1157 ft. / 352.7 m (surveyed)
Variation: 07E (1985)
From city: 1 mile E of CALDWELL, KS
Time zone: UTC -5 (UTC -6 during Standard Time)
Zip code: 67022

Airport Operations

Airport use: Open to the public
Activation date: 12/1945
Control tower: no
ARTCC: KANSAS CITY CENTER
FSS: WICHITA FLIGHT SERVICE STATION
NOTAMs facility: ICT (NOTAM-D service available)
Attendance: UNATNDD
Wind indicator: lighted
Segmented circle: no
Landing fee: no, LNDG FEE FOR COMMERCIAL USERS ONLY.

Airport Communications

CTAF: 122.9
WX AWOS-3 at EGT (20 nm NE): 118.875 (620-326-2470)

Nearby radio navigation aids

VOR radial/distance  VOR name  Freq  Var
PERr304/26.8PIONEER VORTAC113.2006E
ANYr098/29.0ANTHONY VORTAC112.9007E

Airport Services

Parking: tiedowns
Airframe service: NONE
Powerplant service: NONE
Bottled oxygen: NONE
Bulk oxygen: NONE

Runway Information

Runway 17/35

Dimensions: 2460 x 110 ft. / 750 x 34 m
Surface: turf, in good condition
RUNWAY 17  RUNWAY 35
Latitude: 37-02.400143N37-01.994667N
Longitude: 097-35.131850W097-35.134923W
Elevation: 1157.0 ft.1135.0 ft.
Traffic pattern: leftleft
Runway heading: 173 magnetic, 180 true353 magnetic, 000 true
Obstructions: 13 ft. road, 40 ft. from runway, 3:1 slope to clear
COUNTRY ROAD - TFC DURING HARVEST.
15 ft. road, 180 ft. from runway, 12:1 slope to clear
PLINE, HWY & PLINE SUPPORT 1/8 MILE S OF ROAD.

Airport Ownership and Management from official FAA records

Ownership: Publicly-owned
Owner: CITY OF CALDWELL
14 W. CENTRAL
CALDWELL, KS 67022
Phone 620-845-6514
Manager: MARC MARCRUM
14 W. CENTRAL
CALDWELL, KS 67022
Phone 620-845-6676

Airport Operational Statistics

Aircraft based on the field: 1
Single engine airplanes: 1
    
Aircraft operations: avg 75/month *
56% local general aviation
44% transient general aviation
* for 12-month period ending 27 August 2018

Additional Remarks

A30A-17 3 FT DITCH OFF END OF RWY.
18 IN BY 140 FT METAL CULVERT IN DITCH E OF RWY ON TWY.
WIND FARM 5 S OF ARPT.

Instrument Procedures

There are no published instrument procedures at 01K.

Some nearby airports with instrument procedures:

O53 - Medford Municipal Airport (17 nm SW)
KEGT - Wellington Municipal Airport (20 nm NE)
KBKN - Blackwell-Tonkawa Municipal Airport (21 nm SE)
KANY - Anthony Municipal Airport (25 nm W)
8K2 - Harper Municipal Airport (26 nm NW)
 
Loc | Ops | Rwys | IFR | FBO | Links
Com | Nav | Svcs | Stats | Notes

Kansas City Aviation Department
 
Area around 01K (Caldwell Municipal Airport)
 
Road maps at: MapQuest Bing Google
 
Aerial photo
WARNING: Photo may not be current or correct
Aerial photo of 01K (Caldwell Municipal Airport)
Photo by Von Rothenberger
Photo taken 03-Sep-2010

Do you have a better or more recent aerial photo of Caldwell Municipal Airport that you would like to share? If so, please send us your photo.

 
Sectional chart

 
Airport distance calculator
Flying to Caldwell Municipal Airport? Find the distance to fly.

From to 01K

Sunrise and sunset
Times for 24-Apr-2019
 Local
(UTC-5)
 Zulu
(UTC)
Morning civil twilight06:1811:18
Sunrise06:4511:45
Sunset20:1201:12
Evening civil twilight20:3901:39

Current date and time
Zulu (UTC)  24-Apr-2019 07:20:05
Local (UTC-5)  24-Apr-2019 02:20:05
 
METAR
KBKN 
21nm SE 
240655Z AUTO 00000KT 8SM OVC017 13/13 A3001 RMK AO2
KWLD 
28nm E 
240654Z AUTO 05003KT 9SM OVC012 12/11 A2999 RMK AO2 SLP153 T01220106
KPNC 
30nm SE 
240653Z AUTO 08004KT 10SM OVC013 13/11 A2998 RMK AO2 SLP146 T01330106
KICT 
38nm N 
240653Z 00000KT 10SM CLR 10/08 A2997 RMK AO2 SLP147 T01000083 $
KIAB 
38nm NE 
240656Z AUTO 09003KT 10SM CLR 10/10 A2996 RMK AO2 SLP148 T01040099
KWDG 
41nm S 
240655Z AUTO 30003KT 4SM BR OVC017 11/11 A2997 RMK AO2 LTG DSNT E
TAF
KPNC 
30nm SE 
240531Z 2406/2506 02004KT P6SM OVC015 FM240800 VRB02KT 6SM BR OVC008 FM241500 33004KT P6SM SCT005 BKN010 FM241800 VRB04KT P6SM SCT050 SCT250
NOTAMs
Click for the latest NOTAMs
NOTAMs are issued by the DoD/FAA and will open in a separate window not controlled by AirNav.

 

 
 

Would you like to see your business listed on this page?

 If your business provides an interesting product or service to pilots, flight crews, aircraft, or users of the Caldwell Municipal Airport, you should consider listing it here.  To start the listing process, click on the button below
 
Add a business
 

Other Pages about Caldwell Municipal Airport

Update a link
 
Copyright © AirNav, LLC. All rights reserved. Privacy Policy  Contact